Location: Spring Creek
(38.2870°N, 100.2160°W)
Time: 21:41:02
(UTC+00:00)

COSMOS 2455 - Pass Details

Date: 08 May 2021
Orbit: 902 x 908 km, 67.1° (Epoch: 21 June)

Event Time Altitude Azimuth Distance (km) Brightness Sun altitude
Rises 10:46:30 0° 316° (NW) 3,539 5.8 -9.5°
Reaches altitude 10° 10:49:37 10° 301° (WNW) 2,593 5.0 -9.0°
Maximum altitude 10:53:54 21° 255° (WSW) 1,937 4.0 -8.3°
Drops below altitude 10° 10:58:11 10° 209° (SSW) 2,582 4.7 -7.5°
Sets 11:01:18 0° 194° (SSW) 3,518 5.5 -7.0°
